EUTELSAT KONNECT VHTS

Last updated on Thu Jul 03 2025 00:02:49 GMT+0000 (Coordinated Universal Time)

1 53765U 22110A 25183.42266964 .00000024 00000+0 00000+0 0 9994 2 53765 0.0563 95.1550 0002550 6.4623 333.9905 1.00270056 3310
UTC large
Height (km)
Speed (km/s)
/
Latitude / Longitude
Inclination (degrees)
Orbital Period (minutes)
Azimuth
Elevation
Range (km)
Doppler Factor

Next 0 passes for location: London (51.5072 / 0.1276)

Sorry there are no passes over London.